Lid_Strength_Index
9 9 10 12 14 13 16 16 15 15 13 10 9 9 8 8 7 6 6 5 5 4 3 3 3 3 2 2 2 2 2 1
9 8 7 11 11 14 16 17 18 17 16 15 12 11 9 9 8 7 6 5 5 4 4 3 3 3 2 2 2 2 1 1
9 11 11 11 12 14 15 15 17 18 15 10 11 10 10 8 7 7 6 5 5 4 3 3 4 3 2 3 4 4 4 1
12 9 8 10 11 13 15 15 15 15 15 9 9 9 8 8 7 7 6 5 5 4 4 3 3 3 2 3 3 4 4 3
13 11 10 10 11 11 13 15 15 16 14 9 9 9 8 8 7 6 6 5 5 5 4 4 3 3 3 2 3 3 3 2
14 13 12 12 11 11 13 14 14 14 13 12 10 9 8 8 7 6 6 5 5 6 4 4 3 3 3 2 2 1 3 3
12 11 10 11 10 10 12 12 13 12 13 11 10 9 8 7 7 7 6 6 5 5 5 4 4 3 2 2 3 2 2 2
14 11 10 12 10 10 10 10 11 12 12 9 8 8 8 7 7 7 6 6 5 5 4 4 3 3 3 2 2 2 2 2
14 12 12 13 11 10 10 10 10 13 10 8 9 8 8 8 7 7 6 6 5 5 4 4 3 3 3 3 3 2 3 2
15 13 17 11 9 8 9 9 9 9 9 8 8 8 7 6 7 6 6 5 5 4 4 4 5 4 4 4 3 3 4 3
15 15 13 11 10 10 11 12 8 9 8 8 7 7 8 6 6 6 5 5 7 6 5 5 6 5 5 6 6 6 6 5
16 16 16 12 8 7 8 14 8 8 8 8 8 12 10 6 5 6 7 7 7 7 7 7 7 7 7 8 7 7 6 5
14 14 12 9 7 7 13 12 8 7 8 8 9 8 8 7 7 7 7 7 8 7 8 8 8 8 8 8 8 8 7 6
14 15 15 7 8 10 9 8 7 8 8 9 9 8 8 8 8 8 8 8 8 9 9 8 8 8 9 9 8 7 7 6
11 11 8 8 8 8 7 7 8 9 9 8 8 9 9 9 9 9 8 8 9 9 9 9 9 9 8 8 7 7 7 7
10 10 9 7 7 7 7 7 7 8 7 7 8 8 9 9 9 9 9 9 9 9 9 8 8 7 7 7 7 7 8 8
11 9 8 7 7 7 7 7 7 6 7 8 8 9 9 9 9 9 8 7 8 9 9 8 8 8 7 7 7 8 9 8
11 8 8 8 7 6 7 7 7 8 8 7 8 9 8 9 7 7 8 8 9 9 9 8 8 8 7 7 7 9 9 9
8 6 7 6 6 5 7 7 7 7 7 8 8 8 9 8 8 7 8 9 9 9 9 9 8 8 7 8 8 9 10 9